Regional Weather Roundup
Issued by NWS

Home | Current Version | Previous Version | Graphics & Text | Print | Product List | Glossary On
Versions: 1 2 3 4 5 6 7 8 9 10 11 12 13 14 15 16 17 18 19 20 21 22 23 24 25 26 27 28 29 30 31 32 33 34 35 36 37 38 39 40 41 42 43 44 45 46 47 48 49 50
000
ASUS45 KSLC 192110
RWRUT

UTAH REGIONAL WEATHER ROUNDUP
NATIONAL WEATHER SERVICE SALT LAKE CITY UT
200 PM MST MON FEB 19 2018

UTZ001>011-023>025-192200-

NORTHERN UTAH

CITY           SKY/WX    TMP DP  RH WIND       PRES   REMARKS
BRIGHAM CITY   CLOUDY    27  16  63 N13       29.59R WCI  16
HILL AFB       CLOUDY    23  16  74 N15       29.55R WCI  10
LOGAN          CLOUDY    27  15  61 N12       29.58R WCI  17
OGDEN          CLOUDY    26  16  65 NW10      29.56R WCI  16
SALT LAKE CITY FLURRIES  29  20  69 N15       29.58R WCI  18
TOOELE VALLEY  CLOUDY    28  19  69 N10       29.60S WCI  19
WENDOVER       NOT AVBL
HEBER CITY       N/A     27  18  69 N5        29.44R WCI  21
WEST JORDAN    CLOUDY    24  19  81 NW13      29.58S WCI  12

$$

UTZ011>015-024>027-192200-

CENTRAL/NORTHEAST UTAH

CITY           SKY/WX    TMP DP  RH WIND       PRES   REMARKS
PROVO AIRPORT  FLURRIES  25  19  78 NW23      29.57R WCI  10
MOAB/CANYONLAN CLOUDY   N/A N/A N/A SW24G35   29.36S
DELTA          CLOUDY    25  21  86 NW10      29.57S WCI  15
PRICE          PTSUNNY   34  12  40 NW14G26   29.34S WCI  25
RICHFIELD      PTSUNNY   30  14  51 CALM      29.49
ROOSEVELT      PTSUNNY   30  27  86 E13       29.36S WCI  20
VERNAL         CLOUDY    22  14  71 NE20      29.40R WCI   7

$$

UTZ013>016-019>022-027-192200-

SOUTHERN UTAH

CITY           SKY/WX    TMP DP  RH WIND       PRES   REMARKS
BRYCE CANYON   SNOW      20  15  81 NW22G32   29.44R VSB 1/2 WCI   3
CEDAR CITY     CLOUDY    27  19  72 SE3       29.52F
MILFORD        CLOUDY    25  21  85 NE14      29.55S WCI  13
ST GEORGE      CLOUDY    41  30  65 S7        29.62F
HANKSVILLE     CLOUDY    43  12  28 W10G23    29.40F
KANAB          PTSUNNY   34  16  47 W22G32    29.59R HAZE    WCI  22
BLANDING         N/A     38  22  53 SW22G28   29.48R WCI  28

$$

REGIONAL REPORTS     COLORADO/ARIZONA

CITY           SKY/WX    TMP DP  RH WIND       PRES   REMARKS
CRAIG, CO      SNOW       9   3  77 W17       29.46R VSB 1/2 WCI  -9
GRAND JUNCTION LGT SNOW  36  35  96 NW20G25   29.37R FOG     WCI  25
RIFLE, CO      FRZ RAIN  33  32  96 W26G33    29.34R VSB 1/2 WCI  20
MONTROSE, CO   PTSUNNY   44  26  49 SW15      29.37R
CORTEZ, CO     CLOUDY    44  25  47 SW33G53   29.44S
COLORADO CITY  CLOUDY    32  28  86 W9        29.61F WCI  24
PAGE, AZ       CLOUDY    41  20  43 SW13G25   29.51F
GRAND CANYON   MIX PCPN  26  10  50 W24G38    29.53F WCI  11
KINGMAN, AZ    MOSUNNY   45  14  28 S23G29    29.67F
FLAGSTAFF, AZ  SNOW      27  25  92 SW23G39   29.51S VSB 1/4 WCI  12

$$

REGIONAL REPORTS    NEVADA/IDAHO/WYOMING

CITY           SKY/WX    TMP DP  RH WIND       PRES   REMARKS
LAS VEGAS, NV  PTSUNNY   49  -3  11 N17G28    29.67F
ELY, NY        SNOW      18  14  84 N12       29.58R WCI   5
ELKO, NV       PTSUNNY   24   7  48 NW15G21   29.67S WCI  11
POCATELLO, ID  MOSUNNY   25   8  48 NW8       29.63S WCI  16
BURLEY, ID     CLOUDY    26  18  71 W12G22    29.63S WCI  16
FORT BRIDGER,  CLOUDY     7   1  78 SE9       29.48S HAZE    WCI  -7
EVANSTON, WY   LGT SNOW  10   5  80 E10       29.43S WCI  -4
ROCK SPRINGS,  LGT SNOW   3  -5  69 NE23      29.48R WCI -19

$$



USA.gov is the U.S. government's official web portal to all federal, state and local government web resources and services.